Weather in Dumai

Indonesia     1°40′15″N   101°26′38″E
temp.,
°C
wind,
m/s
gust,
m/s
humid.,
%
clouds,
%
prec.,
mm/h
press.,
hPa
HPBL,
m
24 may, tue
tue2401:00+24s0097100 3.9 100915
04:00+24sw1197100 0.6 100928
07:00+24sw1297100 0.6 101080
10:00+30sw1071100 0.1 1011617
13:00+32sw1160100 1.2 10091290
16:00+31sse0168100 0.1 1007436
19:00+27ene118693 0.1 100921
22:00+25se118754 0.0 101115
25 may, wed
wed2501:00+23se0198100 4.7 101017
04:00+23s119870 1.1 100921
07:00+24ssw019699 1.1 101147
10:00+32wnw116310 0.0 1011826
13:00+33wnw335226 0.2 10081769
16:00+30nw347283 0.9 1007606
19:00+26nnw2688100 1.9 1009181
22:00+24nnw2496100 3.9 101195
26 may, thu
thu2601:00+24w1497100 7.6 1010105
04:00+23s2599100 2.4 1010202
07:00+23s2599100 3.1 1012234
10:00+23s1596100 0.4 1013269
13:00+29s1162100 0.4 1009658
16:00+29sw226270 0.0 1008989
19:00+23ssw138679 0.0 101073
22:00+22wsw1187100 0.0 101120
27 may, fri
fri2701:00+22wsw1185100 0.0 100923
04:00+21wsw1286100 0.0 100848
07:00+22wsw128421 0.0 100982
10:00+30wnw235761 0.0 1010726
13:00+33nw244748 0.0 10071590
16:00+31nnw335883 0.0 1006900
19:00+26n258750 0.0 1008133
22:00+25wnw1187100 0.0 100922
28 may, sat
sat2801:00+24wsw1190100 0.1 100836
04:00+23wsw11935 0.0 100842
07:00+24wsw1391100 0.0 1009107
10:00+31w226132 0.0 10101058
13:00+34w2444100 0.0 10072085
16:00+33w24446 0.0 10062038
19:00+26ne128346 0.1 100754
22:00+25wnw118887 0.1 100916